Weather History for Salt Lake City, UT

Change the Weather History Date:

Monday, April 14, 2014

  Actual Average Record
Temperature  
Mean Temperature 43 °F 50 °F  
Max Temperature 56 °F 61 °F 83 °F (2002)
Min Temperature 29 °F 39 °F 25 °F (1933)
Degree Days  
Heating Degree Days 22 15  
Month to date heating degree days 175 231  
Since 1 July heating degree days 4649 5149  
Cooling Degree Days 0 0  
Month to date cooling degree days 0 0  
Year to date cooling degree days 0 0  
Moisture  
Dew Point 17 °F    
Average Humidity 43    
Maximum Humidity 72    
Minimum Humidity 14    
Precipitation  
Precipitation 0.00 in 0.06 in 1.02 in (1886)
Month to date precipitation 0.25 0.92  
Year to date precipitation 4.13 5.21  
Snow  
Snow 0.00 in 0.20 in 3.00 in (1995)
Month to date snowfall T 2.5  
Since 1 July snowfall 35.5 54.4  
Snow Depth 0.00 in    
Sea Level Pressure  
Sea Level Pressure 30.24 in    
Wind  
Wind Speed 5 mph (WSW)    
Max Wind Speed 12 mph    
Max Gust Speed 16 mph    
Visibility 10 miles    
Events      
T = Trace of Precipitation, MM = Missing Value Source: NWS Daily Summary

Daily Weather History Graph

Daily Weather History Graph

Search for Another Location

Airport:

Trip Planner

Search our weather history database for the weather conditions in past years. The results will help you decide how hot, cold, wet, or windy it might be!

Date:

Astronomy

Apr. 14, 2014 Rise Set
Actual Time 6:50 AM MDT 8:06 PM MDT
Civil Twilight 6:22 AM MDT 8:34 PM MDT
Nautical Twilight 5:48 AM MDT 9:08 PM MDT
Astronomical Twilight 5:12 AM MDT 9:44 PM MDT
Moon 7:49 PM MDT (4/14) 6:24 AM MDT (4/14)
Length of Visible Light 14h 12m
Length of Day
13h 15m
Full, 100% of the Moon is Illuminated
Apr 14
Full
Apr 15
Full
Apr 22
Last Quarter
Apr 29
New
May 6
First Quarter

Hourly Weather History & Observations

Time (MDT) Temp. Windchill Dew Point Humidity Pressure Visibility Wind Dir Wind Speed Gust Speed Precip Events Conditions
12:53 AM 41.0 °F 35.2 °F 19.9 °F 43% 30.19 in 10.0 mi NNW 9.2 mph - N/A   Partly Cloudy
1:53 AM 37.0 °F - 19.9 °F 50% 30.20 in 10.0 mi Calm Calm - N/A   Clear
2:53 AM 35.6 °F 29.2 °F 21.2 °F 56% 30.23 in 10.0 mi SW 8.1 mph - N/A   Clear
3:53 AM 33.1 °F 26.9 °F 21.9 °F 64% 30.23 in 10.0 mi WSW 6.9 mph - N/A   Clear
4:53 AM 35.1 °F 32.2 °F 19.9 °F 54% 30.25 in 10.0 mi South 3.5 mph - N/A   Clear
5:53 AM 30.2 °F 25.4 °F 24.8 °F 80% 30.28 in 10.0 mi WSW 4.6 mph - N/A   Clear
6:53 AM 32.0 °F 28.7 °F 25.0 °F 75% 30.30 in 10.0 mi SSW 3.5 mph - N/A   Clear
7:53 AM 35.1 °F 31.0 °F 25.0 °F 67% 30.32 in 10.0 mi South 4.6 mph - N/A   Clear
8:53 AM 39.0 °F 33.4 °F 21.9 °F 50% 30.32 in 10.0 mi South 8.1 mph - N/A   Clear
9:53 AM 43.0 °F 39.5 °F 19.0 °F 38% 30.32 in 10.0 mi Variable 5.8 mph - N/A   Partly Cloudy
10:53 AM 46.0 °F 43.9 °F 18.0 °F 33% 30.32 in 10.0 mi West 4.6 mph - N/A   Partly Cloudy
11:53 AM 48.2 °F - 15.8 °F 27% 30.33 in 10.0 mi WNW 6.9 mph - N/A   Partly Cloudy
12:53 PM 51.1 °F - 14.0 °F 23% 30.29 in 10.0 mi Variable 4.6 mph - N/A   Partly Cloudy
1:53 PM 53.1 °F - 16.0 °F 23% 30.29 in 10.0 mi WNW 8.1 mph - N/A   Partly Cloudy
2:53 PM 53.1 °F - 1.9 °F 12% 30.27 in 10.0 mi Calm Calm - N/A   Partly Cloudy
3:53 PM 55.0 °F - 5.0 °F 13% 30.25 in 10.0 mi WNW 6.9 mph - N/A   Partly Cloudy
4:53 PM 50.0 °F - 42.8 °F 76% 30.22 in 10.0 mi North - - N/A   Unknown
5:53 PM 55.0 °F - 15.1 °F 21% 30.21 in 10.0 mi North 9.2 mph - N/A   Clear
6:53 PM 55.0 °F - 9.0 °F 16% 30.20 in 10.0 mi NNW 4.6 mph - N/A   Partly Cloudy
7:53 PM 50.0 °F - 10.9 °F 21% 30.18 in 10.0 mi North 5.8 mph - N/A   Partly Cloudy
8:53 PM 50.0 °F - 8.1 °F 18% 30.17 in 10.0 mi Calm Calm - N/A   Partly Cloudy
9:53 PM 46.0 °F 43.1 °F 8.1 °F 21% 30.17 in 10.0 mi SSE 5.8 mph - N/A   Partly Cloudy
10:53 PM 44.1 °F 38.6 °F 10.0 °F 25% 30.15 in 10.0 mi SE 10.4 mph - N/A   Scattered Clouds
11:53 PM 43.0 °F 38.2 °F 19.0 °F 38% 30.14 in 10.0 mi SE 8.1 mph - N/A   Partly Cloudy